FDX12C KSYR-KATL

Flight info

Callsign FDX12C
Flight time N/A
Altitude 330
Route SYR PTAKI STUBN PSB HACKS HVQ HLRRY ONDRE1
Aircraft A333/H-SDE3GHIJ2J3J5M1RVWXY/LB2D1

Departure

Time 2026-04-26 15:52
Airport Syracuse Hancock International Airport (KSYR)

Arrival

Time N/A
Airport Hartsfield Jackson Atlanta International Airport (KATL)
Time Latitude Longitude Altitude Speed Heading
2026-04-26 15:37 43.11258 -76.11005 420 ft 0 kts 357°
2026-04-26 15:45 43.11243 -76.11005 420 ft 2 kts 357°
2026-04-26 15:45 43.11228 -76.11004 421 ft 2 kts 15°
2026-04-26 15:46 43.11209 -76.11031 420 ft 1 kts 84°
2026-04-26 15:46 43.11209 -76.11038 420 ft 1 kts 88°
2026-04-26 15:46 43.11209 -76.11039 420 ft 0 kts 88°
2026-04-26 15:48 43.11211 -76.10930 420 ft 21 kts 88°
2026-04-26 15:49 43.11071 -76.10817 420 ft 33 kts 187°
2026-04-26 15:49 43.10997 -76.11054 420 ft 29 kts 268°
2026-04-26 15:49 43.10990 -76.11350 421 ft 33 kts 267°
2026-04-26 15:49 43.10978 -76.11679 424 ft 36 kts 267°
2026-04-26 15:50 43.10965 -76.12022 424 ft 35 kts 266°
2026-04-26 15:50 43.10953 -76.12347 424 ft 33 kts 268°
2026-04-26 15:50 43.10931 -76.12619 424 ft 13 kts 220°
2026-04-26 15:50 43.10927 -76.12620 424 ft 0 kts 198°
2026-04-26 15:51 43.10902 -76.12623 424 ft 15 kts 175°
2026-04-26 15:51 43.10825 -76.12279 425 ft 68 kts 88°
2026-04-26 15:51 43.10858 -76.11413 422 ft 117 kts 88°
2026-04-26 15:52 43.10907 -76.10066 410 ft 166 kts 86°
2026-04-26 15:52 43.10969 -76.08368 674 ft 179 kts 86°
2026-04-26 15:52 43.11050 -76.06819 1472 ft 158 kts 84°
2026-04-26 15:52 43.11115 -76.05817 1748 ft 162 kts 83°
2026-04-26 15:53 43.10992 -76.03485 1845 ft 204 kts 103°
2026-04-26 15:53 43.10327 -76.01760 2355 ft 217 kts 136°
2026-04-26 15:53 43.08955 -76.00768 2732 ft 237 kts 171°
2026-04-26 15:53 43.07282 -76.00957 3253 ft 252 kts 201°
2026-04-26 15:54 43.05793 -76.02369 3731 ft 273 kts 231°
2026-04-26 15:54 43.04891 -76.04709 4218 ft 292 kts 254°
2026-04-26 15:54 43.04286 -76.07476 4689 ft 316 kts 254°
2026-04-26 15:54 43.03548 -76.10400 5099 ft 341 kts 244°
2026-04-26 15:55 43.02061 -76.13088 5524 ft 366 kts 224°
2026-04-26 15:55 43.00186 -76.15420 5950 ft 363 kts 224°
2026-04-26 15:55 42.98380 -76.17770 6201 ft 348 kts 224°
2026-04-26 15:55 42.96695 -76.19926 6668 ft 317 kts 224°
2026-04-26 15:56 42.95161 -76.21884 7076 ft 288 kts 224°
2026-04-26 15:56 42.93720 -76.23724 7532 ft 279 kts 225°
2026-04-26 15:56 42.92316 -76.25515 8018 ft 277 kts 225°
2026-04-26 15:56 42.90925 -76.27290 8494 ft 275 kts 225°
2026-04-26 15:57 42.89526 -76.29072 8836 ft 278 kts 225°
2026-04-26 15:57 42.88082 -76.30914 9107 ft 284 kts 225°
2026-04-26 15:57 42.86632 -76.32759 9398 ft 290 kts 225°
2026-04-26 15:57 42.85642 -76.34016 9589 ft 293 kts 226°
2026-04-26 15:58 42.83641 -76.36559 9965 ft 301 kts 226°
2026-04-26 15:58 42.82088 -76.38533 10282 ft 305 kts 226°
2026-04-26 15:58 42.80542 -76.40493 10707 ft 306 kts 226°
2026-04-26 15:58 42.78989 -76.42463 11124 ft 306 kts 226°
2026-04-26 15:59 42.77419 -76.44452 11548 ft 306 kts 226°
2026-04-26 15:59 42.75866 -76.46419 11966 ft 306 kts 227°
2026-04-26 15:59 42.74298 -76.48402 12376 ft 306 kts 227°
2026-04-26 15:59 42.73951 -76.48841 12468 ft 305 kts 227°
2026-04-26 16:00 42.72404 -76.50795 12865 ft 305 kts 227°
2026-04-26 16:00 42.70858 -76.52746 13264 ft 303 kts 227°
2026-04-26 16:00 42.69303 -76.54707 13662 ft 302 kts 227°
2026-04-26 16:00 42.67783 -76.56622 14052 ft 300 kts 228°
2026-04-26 16:01 42.66254 -76.58547 14453 ft 297 kts 228°
2026-04-26 16:01 42.64702 -76.60352 14807 ft 301 kts 216°
2026-04-26 16:01 42.62833 -76.61799 15113 ft 313 kts 214°
2026-04-26 16:01 42.60896 -76.63288 15410 ft 324 kts 214°
2026-04-26 16:02 42.58905 -76.64816 15684 ft 335 kts 214°
2026-04-26 16:02 42.56848 -76.66396 15975 ft 347 kts 213°
2026-04-26 16:02 42.54722 -76.68024 16348 ft 355 kts 213°
2026-04-26 16:02 42.53262 -76.69141 16689 ft 358 kts 214°
2026-04-26 16:03 42.50345 -76.71371 17316 ft 364 kts 214°
2026-04-26 16:03 42.48153 -76.73047 17865 ft 366 kts 214°
2026-04-26 16:03 42.45933 -76.74745 18301 ft 370 kts 214°
2026-04-26 16:03 42.43691 -76.76458 18733 ft 375 kts 214°
2026-04-26 16:04 42.41414 -76.78193 19213 ft 377 kts 214°
2026-04-26 16:04 42.39101 -76.79956 19651 ft 380 kts 215°
2026-04-26 16:04 42.36803 -76.81706 20132 ft 382 kts 215°
2026-04-26 16:04 42.34478 -76.83476 20549 ft 385 kts 215°
2026-04-26 16:05 42.32147 -76.85248 20955 ft 388 kts 215°
2026-04-26 16:05 42.29778 -76.87045 21397 ft 390 kts 215°
2026-04-26 16:05 42.27403 -76.88847 21833 ft 392 kts 215°
2026-04-26 16:05 42.25032 -76.90646 22198 ft 395 kts 215°
2026-04-26 16:06 42.22643 -76.92455 22635 ft 396 kts 215°
2026-04-26 16:06 42.20214 -76.94294 23009 ft 399 kts 216°
2026-04-26 16:06 42.17809 -76.96115 23341 ft 402 kts 215°
2026-04-26 16:06 42.15377 -76.97953 23741 ft 403 kts 216°
2026-04-26 16:07 42.12934 -76.99796 24079 ft 406 kts 215°
2026-04-26 16:07 42.10458 -77.01665 24457 ft 408 kts 215°
2026-04-26 16:07 42.08018 -77.03599 24827 ft 406 kts 218°
2026-04-26 16:07 42.05614 -77.05636 25186 ft 408 kts 218°
2026-04-26 16:08 42.03208 -77.07654 25530 ft 409 kts 218°
2026-04-26 16:08 42.00808 -77.09664 25886 ft 410 kts 218°
2026-04-26 16:08 41.98392 -77.11688 26238 ft 411 kts 218°
2026-04-26 16:08 41.95967 -77.13715 26595 ft 411 kts 218°
2026-04-26 16:09 41.93547 -77.15738 26955 ft 410 kts 218°
2026-04-26 16:09 41.91103 -77.17776 27309 ft 410 kts 218°
2026-04-26 16:09 41.88699 -77.19778 27647 ft 406 kts 218°
2026-04-26 16:09 41.86327 -77.21756 27960 ft 403 kts 218°
2026-04-26 16:10 41.83963 -77.23724 28284 ft 400 kts 218°
2026-04-26 16:10 41.81624 -77.25671 28605 ft 396 kts 218°
2026-04-26 16:10 41.79273 -77.27623 28921 ft 392 kts 218°
2026-04-26 16:10 41.76972 -77.29531 29243 ft 389 kts 218°
2026-04-26 16:11 41.74677 -77.31435 29553 ft 385 kts 218°
2026-04-26 16:11 41.72444 -77.33285 29862 ft 380 kts 218°
2026-04-26 16:11 41.70187 -77.35158 30168 ft 376 kts 217°
2026-04-26 16:11 41.67981 -77.36982 30463 ft 371 kts 218°
2026-04-26 16:12 41.65797 -77.38786 30735 ft 367 kts 218°
2026-04-26 16:12 41.63659 -77.40554 30993 ft 362 kts 218°
2026-04-26 16:12 41.59443 -77.44029 31502 ft 351 kts 218°
2026-04-26 16:13 41.57367 -77.45743 31649 ft 348 kts 219°
2026-04-26 16:13 41.55314 -77.47437 31667 ft 348 kts 218°
2026-04-26 16:13 41.53274 -77.49101 31850 ft 342 kts 218°
2026-04-26 16:13 41.51212 -77.50759 32018 ft 337 kts 218°
2026-04-26 16:14 41.47124 -77.54022 31762 ft 347 kts 217°
2026-04-26 16:14 41.42942 -77.57304 31937 ft 341 kts 217°
2026-04-26 16:15 41.40880 -77.58875 32076 ft 337 kts 216°
2026-04-26 16:15 41.38821 -77.60420 31946 ft 343 kts 216°
2026-04-26 16:15 41.36733 -77.61970 31746 ft 345 kts 215°
2026-04-26 16:16 41.30377 -77.66541 31872 ft 340 kts 213°
2026-04-26 16:16 41.26112 -77.69478 31661 ft 351 kts 212°
2026-04-26 16:17 41.23926 -77.70954 31555 ft 354 kts 211°